{"data":{"norad_id":82627,"intl_designator":"","name":"UNKNOWN","alt_names":[],"object_type":"UNKNOWN","status":"UNKNOWN","operator":null,"country":null,"launch_date":null,"launch_site_code":null,"launch_vehicle":null,"mission":null,"orbit_class":"UNKNOWN","rcs_meters":null,"size_class":null,"mass_kg":null,"dimensions":null,"purposes":[],"wikipedia_slug":null,"has_3d_model":false,"image_url":null,"decayed_at":null,"tle_current":{"epoch":"2026-09-15T21:03:36.071712Z","epoch_age_seconds":417760,"freshness":"STALE","line1":"1 82627U          26258.87750083  .00000418  00000+0  10589-2 0  9993","line2":"2 82627  82.4760  50.9386 0015008 145.8326  10.5373 13.16666148615292","mean_motion":13.16666148,"eccentricity":0.0015008,"inclination_deg":82.476,"raan_deg":50.9386,"arg_perigee_deg":145.8326,"mean_anomaly_deg":10.5373,"bstar":0.0010589,"rev_number":61529,"period_min":109.36713168994,"perigee_km":1186.1114107688,"apogee_km":1208.8503854518,"semimajor_km":7575.6178981103,"source":"CELESTRAK","updated_at":"2026-09-20T09:00:32.437266Z"}}}